Location: Ferma
(41.9500°N, 44.5167°E)
Time: 16:32:24
(UTC+00:00)

Cosmos 220 Rocket - Pass Details

Date: 01 June 2022
Orbit: 572 x 614 km, 74.0° (Epoch: 30 June)

Event Time Altitude Azimuth Distance (km) Brightness Sun altitude
Exits shadow 20:14:28 45° 282° (WNW) 789 4.7 -25.1°
Maximum altitude 20:14:43 46° 293° (WNW) 781 4.7 -25.1°
Drops below altitude 10° 20:18:46 10° 8° (N) 1,888 7.5 -25.2°
Sets 20:21:04 0° 14° (NNE) 2,793 8.5 -25.3°
